Year,Month,Day,Hour,Minute,Value (Times are PST for temperature in C)
2015,05,30,08,28,13.30
2015,05,30,08,29,13.30
2015,05,30,08,30,13.30
2015,05,30,08,31,13.40
2015,05,30,08,32,13.50
2015,05,30,08,33,13.60
2015,05,30,08,34,13.60
2015,05,30,08,35,13.70
2015,05,30,08,36,13.70
2015,05,30,08,37,13.80
2015,05,30,08,38,13.90
2015,05,30,08,39,13.80
2015,05,30,08,40,13.80
2015,05,30,08,41,13.80
2015,05,30,08,42,13.80
2015,05,30,08,43,13.80
2015,05,30,08,44,13.80
2015,05,30,08,45,13.80
2015,05,30,08,46,13.80
2015,05,30,08,47,13.80
2015,05,30,08,48,13.80
2015,05,30,08,49,13.90
2015,05,30,08,50,13.90
2015,05,30,08,51,13.90
2015,05,30,08,52,14.00
2015,05,30,08,53,14.00
2015,05,30,08,54,14.00
2015,05,30,08,55,14.00
2015,05,30,08,56,14.00
2015,05,30,08,57,14.10
2015,05,30,08,58,14.10
2015,05,30,08,59,14.10
2015,05,30,09,00,14.10
2015,05,30,09,01,14.20
2015,05,30,09,02,14.20
2015,05,30,09,03,14.30
2015,05,30,09,04,14.30
2015,05,30,09,05,14.30
2015,05,30,09,06,14.30
2015,05,30,09,07,14.30
2015,05,30,09,08,14.30
2015,05,30,09,09,14.30
2015,05,30,09,10,14.30
2015,05,30,09,11,14.40
2015,05,30,09,12,14.50
2015,05,30,09,13,14.60
2015,05,30,09,14,14.60
2015,05,30,09,15,14.60
2015,05,30,09,16,14.70
2015,05,30,09,17,14.70
2015,05,30,09,18,14.80
2015,05,30,09,19,14.90
2015,05,30,09,20,15.00
2015,05,30,09,21,15.00
2015,05,30,09,22,15.00
2015,05,30,09,23,15.00
2015,05,30,09,24,15.00
2015,05,30,09,25,15.10
2015,05,30,09,26,15.20
2015,05,30,09,27,15.30
2015,05,30,09,28,15.30
2015,05,30,09,29,15.40
2015,05,30,09,30,15.40
2015,05,30,09,31,15.50
2015,05,30,09,32,15.50
2015,05,30,09,33,15.60
2015,05,30,09,34,15.60
2015,05,30,09,35,15.70
2015,05,30,09,36,15.70
2015,05,30,09,37,15.70
2015,05,30,09,38,15.70
2015,05,30,09,39,15.70
2015,05,30,09,40,15.80
2015,05,30,09,41,15.80
2015,05,30,09,42,15.80
2015,05,30,09,43,15.80
2015,05,30,09,44,15.90
2015,05,30,09,45,16.00
2015,05,30,09,46,16.10
2015,05,30,09,47,16.30
2015,05,30,09,48,16.40
2015,05,30,09,49,16.50
2015,05,30,09,50,16.60
2015,05,30,09,51,16.60
2015,05,30,09,52,16.70
2015,05,30,09,53,16.80
2015,05,30,09,54,16.90
2015,05,30,09,55,16.90
2015,05,30,09,56,17.00
2015,05,30,09,57,17.10
2015,05,30,09,58,17.10
2015,05,30,09,59,17.00
2015,05,30,10,00,17.00
2015,05,30,10,01,17.00
2015,05,30,10,02,17.00
2015,05,30,10,03,17.00
2015,05,30,10,04,17.10
2015,05,30,10,05,17.10
2015,05,30,10,06,17.10
2015,05,30,10,07,17.10
2015,05,30,10,08,17.10
2015,05,30,10,09,17.10
2015,05,30,10,10,17.10
2015,05,30,10,11,17.10
2015,05,30,10,12,17.10
2015,05,30,10,13,17.00
2015,05,30,10,14,16.90
2015,05,30,10,15,16.80
2015,05,30,10,16,16.60
2015,05,30,10,17,16.60
2015,05,30,10,18,16.60
2015,05,30,10,19,16.70
2015,05,30,10,20,16.80
2015,05,30,10,21,17.00
2015,05,30,10,22,17.10
2015,05,30,10,23,17.10
2015,05,30,10,24,17.20
2015,05,30,10,25,17.20
2015,05,30,10,26,17.10
2015,05,30,10,27,17.00
2015,05,30,10,28,17.00
2015,05,30,10,29,17.00
2015,05,30,10,30,17.10
2015,05,30,10,31,17.00
2015,05,30,10,32,17.00
2015,05,30,10,33,17.00
2015,05,30,10,34,17.00
2015,05,30,10,35,17.00
2015,05,30,10,36,17.10
2015,05,30,10,37,17.10
2015,05,30,10,38,17.10
2015,05,30,10,39,17.00
2015,05,30,10,40,17.10
2015,05,30,10,41,17.00
2015,05,30,10,42,16.90
2015,05,30,10,43,16.80
2015,05,30,10,44,16.70
2015,05,30,10,45,16.60
2015,05,30,10,46,16.60
2015,05,30,10,47,16.70
2015,05,30,10,48,16.70
2015,05,30,10,49,16.70
2015,05,30,10,50,16.70
2015,05,30,10,51,16.80
2015,05,30,10,52,16.80
2015,05,30,10,53,16.80
2015,05,30,10,54,16.90
2015,05,30,10,55,16.80
2015,05,30,10,56,16.80
2015,05,30,10,57,16.70
2015,05,30,10,58,16.70
2015,05,30,10,59,16.70
2015,05,30,11,00,16.70
2015,05,30,11,01,16.70
2015,05,30,11,02,16.70
2015,05,30,11,03,16.80
2015,05,30,11,04,16.90
2015,05,30,11,05,17.00
2015,05,30,11,06,17.00
2015,05,30,11,07,17.10
2015,05,30,11,08,17.20
2015,05,30,11,09,17.20
2015,05,30,11,10,17.30
2015,05,30,11,11,17.30
2015,05,30,11,12,17.20
2015,05,30,11,13,17.10
2015,05,30,11,14,17.10
2015,05,30,11,15,17.10
2015,05,30,11,16,17.00
2015,05,30,11,17,17.10
2015,05,30,11,18,17.10
2015,05,30,11,19,17.10
2015,05,30,11,20,17.10
2015,05,30,11,21,17.20
2015,05,30,11,22,17.20
2015,05,30,11,23,17.30
2015,05,30,11,24,17.40
2015,05,30,11,25,17.50
2015,05,30,11,26,17.60
2015,05,30,11,27,17.70
2015,05,30,11,28,17.60
2015,05,30,11,29,17.60
2015,05,30,11,30,17.70
2015,05,30,11,31,17.70
2015,05,30,11,32,17.50
2015,05,30,11,33,17.40
2015,05,30,11,34,17.50
2015,05,30,11,35,17.60
2015,05,30,11,36,17.60
2015,05,30,11,37,17.80
2015,05,30,11,38,17.90
2015,05,30,11,39,17.80
2015,05,30,11,40,17.90
2015,05,30,11,41,18.10
2015,05,30,11,42,18.20
2015,05,30,11,43,18.20
2015,05,30,11,44,18.30
2015,05,30,11,45,18.40
2015,05,30,11,46,18.40
2015,05,30,11,47,18.50
2015,05,30,11,48,18.50
2015,05,30,11,49,18.50
2015,05,30,11,50,18.40
2015,05,30,11,51,18.40
2015,05,30,11,52,18.30
2015,05,30,11,53,18.10
2015,05,30,11,54,17.90
2015,05,30,11,55,17.90
2015,05,30,11,56,17.90
2015,05,30,11,57,18.00
2015,05,30,11,58,18.10
2015,05,30,11,59,18.10
2015,05,30,12,00,18.20
2015,05,30,12,01,18.30
2015,05,30,12,02,18.30
2015,05,30,12,03,18.40
2015,05,30,12,04,18.50
2015,05,30,12,05,18.60
2015,05,30,12,06,18.60
2015,05,30,12,07,18.70
2015,05,30,12,08,18.80
2015,05,30,12,09,18.90
2015,05,30,12,10,18.90
2015,05,30,12,11,18.90
2015,05,30,12,12,19.00
2015,05,30,12,13,19.00
2015,05,30,12,14,18.90
2015,05,30,12,15,18.80
2015,05,30,12,16,18.70
2015,05,30,12,17,18.60
2015,05,30,12,18,18.70
2015,05,30,12,19,18.80
2015,05,30,12,20,18.90
2015,05,30,12,21,19.10
2015,05,30,12,22,19.20
2015,05,30,12,23,19.30
2015,05,30,12,24,19.40
2015,05,30,12,25,19.40
2015,05,30,12,26,19.50
2015,05,30,12,27,19.50
2015,05,30,12,28,19.60
2015,05,30,12,29,19.60
2015,05,30,12,30,19.50
2015,05,30,12,31,19.50
2015,05,30,12,32,19.40
2015,05,30,12,33,19.40
2015,05,30,12,34,19.20
2015,05,30,12,35,19.10
2015,05,30,12,36,19.00
2015,05,30,12,37,18.90
2015,05,30,12,38,18.90
2015,05,30,12,39,19.00
2015,05,30,12,40,19.00
2015,05,30,12,41,19.10
2015,05,30,12,42,19.10
2015,05,30,12,43,19.20
2015,05,30,12,44,19.20
2015,05,30,12,45,19.30
2015,05,30,12,46,19.50
2015,05,30,12,47,19.60
2015,05,30,12,48,19.60
2015,05,30,12,49,19.50
2015,05,30,12,50,19.50
2015,05,30,12,51,19.60
2015,05,30,12,52,19.70
2015,05,30,12,53,19.80
2015,05,30,12,54,19.90
2015,05,30,12,55,20.00
2015,05,30,12,56,19.90
2015,05,30,12,57,19.90
2015,05,30,12,58,19.80
2015,05,30,12,59,19.80
2015,05,30,13,00,19.80
2015,05,30,13,01,19.80
2015,05,30,13,02,19.80
2015,05,30,13,03,19.80
2015,05,30,13,04,19.80
2015,05,30,13,05,19.80
2015,05,30,13,06,19.80
2015,05,30,13,07,19.70
2015,05,30,13,08,19.60
2015,05,30,13,09,19.50
2015,05,30,13,10,19.60
2015,05,30,13,11,19.60
2015,05,30,13,12,19.60
2015,05,30,13,13,19.50
2015,05,30,13,14,19.50
2015,05,30,13,15,19.40
2015,05,30,13,16,19.40
2015,05,30,13,17,19.40
2015,05,30,13,18,19.50
2015,05,30,13,19,19.60
2015,05,30,13,20,19.60
2015,05,30,13,21,19.50
2015,05,30,13,22,19.40
2015,05,30,13,23,19.40
2015,05,30,13,24,19.40
2015,05,30,13,25,19.40
2015,05,30,13,26,19.40
2015,05,30,13,27,19.50
2015,05,30,13,28,19.60
2015,05,30,13,29,19.80
2015,05,30,13,30,19.90
2015,05,30,13,31,20.10
2015,05,30,13,32,20.20
2015,05,30,13,33,20.30
2015,05,30,13,34,20.20
2015,05,30,13,35,20.30
2015,05,30,13,36,20.30
2015,05,30,13,37,20.20
2015,05,30,13,38,20.20
2015,05,30,13,39,20.20
2015,05,30,13,40,20.20
2015,05,30,13,41,20.20
2015,05,30,13,42,20.20
2015,05,30,13,43,20.20
2015,05,30,13,44,20.20
2015,05,30,13,45,20.40
2015,05,30,13,46,20.40
2015,05,30,13,47,20.40
2015,05,30,13,48,20.50
2015,05,30,13,49,20.60
2015,05,30,13,50,20.70
2015,05,30,13,51,20.80
2015,05,30,13,52,20.80
2015,05,30,13,53,20.80
2015,05,30,13,54,20.70
2015,05,30,13,55,20.60
2015,05,30,13,56,20.70
2015,05,30,13,57,20.80
2015,05,30,13,58,20.90
2015,05,30,13,59,20.80
2015,05,30,14,00,20.80
2015,05,30,14,01,20.90
2015,05,30,14,02,21.00
2015,05,30,14,03,21.10
2015,05,30,14,04,21.00
2015,05,30,14,05,21.00
2015,05,30,14,06,20.90
2015,05,30,14,07,20.80
2015,05,30,14,08,20.80
2015,05,30,14,09,20.80
2015,05,30,14,10,20.60
2015,05,30,14,11,20.60
2015,05,30,14,12,20.70
2015,05,30,14,13,20.70
2015,05,30,14,14,20.60
2015,05,30,14,15,20.60
2015,05,30,14,16,20.70
2015,05,30,14,17,20.60
2015,05,30,14,18,20.40
2015,05,30,14,19,20.30
2015,05,30,14,20,20.40
2015,05,30,14,21,20.50
2015,05,30,14,22,20.60
2015,05,30,14,23,20.70
2015,05,30,14,24,20.80
2015,05,30,14,25,20.70
2015,05,30,14,26,20.80
2015,05,30,14,27,20.90
2015,05,30,14,28,20.90
2015,05,30,14,29,21.00
2015,05,30,14,30,21.10
2015,05,30,14,31,21.10
2015,05,30,14,32,21.10
2015,05,30,14,33,21.10
2015,05,30,14,34,21.10
2015,05,30,14,35,21.00
2015,05,30,14,36,21.00
2015,05,30,14,37,20.90
2015,05,30,14,38,21.00
2015,05,30,14,39,21.10
2015,05,30,14,40,21.10
2015,05,30,14,41,21.20
2015,05,30,14,42,21.20
2015,05,30,14,43,21.20
2015,05,30,14,44,21.20
2015,05,30,14,45,21.10
2015,05,30,14,46,21.20
2015,05,30,14,47,21.20
2015,05,30,14,48,21.30
2015,05,30,14,49,21.40
2015,05,30,14,50,21.50
2015,05,30,14,51,21.40
2015,05,30,14,52,21.20
2015,05,30,14,53,21.20
2015,05,30,14,54,21.20
2015,05,30,14,55,21.30
2015,05,30,14,56,21.30
2015,05,30,14,57,21.30
2015,05,30,14,58,21.40
2015,05,30,14,59,21.40
2015,05,30,15,00,21.40
2015,05,30,15,01,21.30
2015,05,30,15,02,21.30
2015,05,30,15,03,21.30
2015,05,30,15,04,21.20
2015,05,30,15,05,21.20
2015,05,30,15,06,21.30
2015,05,30,15,07,21.20
2015,05,30,15,08,21.10
2015,05,30,15,09,21.00
2015,05,30,15,10,20.90
2015,05,30,15,11,20.90
2015,05,30,15,12,20.90
2015,05,30,15,13,20.90
2015,05,30,15,14,20.90
2015,05,30,15,15,20.90
2015,05,30,15,16,20.90
2015,05,30,15,17,20.90
2015,05,30,15,18,20.80
2015,05,30,15,19,20.80
2015,05,30,15,20,20.80
2015,05,30,15,21,20.70
2015,05,30,15,22,20.70
2015,05,30,15,23,20.60
2015,05,30,15,24,20.60
2015,05,30,15,25,20.70
2015,05,30,15,26,20.60
2015,05,30,15,27,20.60
2015,05,30,15,28,20.70
2015,05,30,15,29,20.80
2015,05,30,15,30,20.90
2015,05,30,15,31,20.90
2015,05,30,15,32,20.90
2015,05,30,15,33,21.00
2015,05,30,15,34,21.00
2015,05,30,15,35,21.10
2015,05,30,15,36,21.20
2015,05,30,15,37,21.30
2015,05,30,15,38,21.30
2015,05,30,15,39,21.30
2015,05,30,15,40,21.40
2015,05,30,15,41,21.30
2015,05,30,15,42,21.30
2015,05,30,15,43,21.20
2015,05,30,15,44,21.20
2015,05,30,15,45,21.20
2015,05,30,15,46,21.20
2015,05,30,15,47,21.20
2015,05,30,15,48,21.20
2015,05,30,15,49,21.20
2015,05,30,15,50,21.20
2015,05,30,15,51,21.30
2015,05,30,15,52,21.30
2015,05,30,15,53,21.30
2015,05,30,15,54,21.30
2015,05,30,15,55,21.30
2015,05,30,15,56,21.30
2015,05,30,15,57,21.20
2015,05,30,15,58,21.10
2015,05,30,15,59,21.10
2015,05,30,16,00,21.00
2015,05,30,16,01,20.90
2015,05,30,16,02,20.90
2015,05,30,16,03,20.90
2015,05,30,16,04,20.90
2015,05,30,16,05,20.90
2015,05,30,16,06,20.90
2015,05,30,16,07,21.00
2015,05,30,16,08,21.10
2015,05,30,16,09,21.20
2015,05,30,16,10,21.20
2015,05,30,16,11,21.30
2015,05,30,16,12,21.40
2015,05,30,16,13,21.30
2015,05,30,16,14,21.40
2015,05,30,16,15,21.40
2015,05,30,16,16,21.40
2015,05,30,16,17,21.30
2015,05,30,16,18,21.10
2015,05,30,16,19,21.10
2015,05,30,16,20,21.10
2015,05,30,16,21,21.10
2015,05,30,16,22,21.10
2015,05,30,16,23,21.10
2015,05,30,16,24,21.20
2015,05,30,16,25,21.20
2015,05,30,16,26,21.20
2015,05,30,16,27,21.10
2015,05,30,16,28,21.00
2015,05,30,16,29,21.00
2015,05,30,16,30,21.00
2015,05,30,16,31,21.10
2015,05,30,16,32,21.10
2015,05,30,16,33,21.20
2015,05,30,16,34,21.20
2015,05,30,16,35,21.30
2015,05,30,16,36,21.30
2015,05,30,16,37,21.30
2015,05,30,16,38,21.40
2015,05,30,16,39,21.60
2015,05,30,16,40,21.60
2015,05,30,16,41,21.70
2015,05,30,16,42,21.80
2015,05,30,16,43,21.90
2015,05,30,16,44,21.90
2015,05,30,16,45,21.80
2015,05,30,16,46,21.80
2015,05,30,16,47,21.90
2015,05,30,16,48,22.00
2015,05,30,16,49,22.10
2015,05,30,16,50,22.10
2015,05,30,16,51,22.10
2015,05,30,16,52,22.00
2015,05,30,16,53,21.90
2015,05,30,16,54,21.80
2015,05,30,16,55,21.80
2015,05,30,16,56,21.60
2015,05,30,16,57,21.60
2015,05,30,16,58,21.40
2015,05,30,16,59,21.30
2015,05,30,17,00,21.30
2015,05,30,17,01,21.30
2015,05,30,17,02,21.30
2015,05,30,17,03,21.20
2015,05,30,17,04,21.20
2015,05,30,17,05,21.10
2015,05,30,17,06,21.10
2015,05,30,17,07,21.10
2015,05,30,17,08,21.10
2015,05,30,17,09,21.10
2015,05,30,17,10,21.10
2015,05,30,17,11,21.00
2015,05,30,17,12,20.90
2015,05,30,17,13,21.00
2015,05,30,17,14,20.90
2015,05,30,17,15,21.00
2015,05,30,17,16,21.10
2015,05,30,17,17,21.20
2015,05,30,17,18,21.20
2015,05,30,17,19,21.20
2015,05,30,17,20,21.20
2015,05,30,17,21,21.30
2015,05,30,17,22,21.30
2015,05,30,17,23,21.30
2015,05,30,17,24,21.30
2015,05,30,17,25,21.20
2015,05,30,17,26,21.10
2015,05,30,17,27,21.00
2015,05,30,17,28,20.90
2015,05,30,17,29,20.80
2015,05,30,17,30,20.80
2015,05,30,17,31,20.70
2015,05,30,17,32,20.70
2015,05,30,17,33,20.70
2015,05,30,17,34,20.70
2015,05,30,17,35,20.70
2015,05,30,17,36,20.60
2015,05,30,17,37,20.60
2015,05,30,17,38,20.50
2015,05,30,17,39,20.50
2015,05,30,17,40,20.40
2015,05,30,17,41,20.30
2015,05,30,17,42,20.30
2015,05,30,17,43,20.30
2015,05,30,17,44,20.20
2015,05,30,17,45,20.10
2015,05,30,17,46,20.10
2015,05,30,17,47,20.10
2015,05,30,17,48,20.20
2015,05,30,17,49,20.30
2015,05,30,17,50,20.20
2015,05,30,17,51,20.10
2015,05,30,17,52,20.10
2015,05,30,17,53,20.10
2015,05,30,17,54,20.00
2015,05,30,17,55,19.90
2015,05,30,17,56,19.70
2015,05,30,17,57,19.70
2015,05,30,17,58,19.60
2015,05,30,17,59,19.50
2015,05,30,18,00,19.50
2015,05,30,18,01,19.50
2015,05,30,18,02,19.50
2015,05,30,18,03,19.50
2015,05,30,18,04,19.40
2015,05,30,18,05,19.30
2015,05,30,18,06,19.30
2015,05,30,18,07,19.30
2015,05,30,18,08,19.40
2015,05,30,18,09,19.40
2015,05,30,18,10,19.40
2015,05,30,18,11,19.40
2015,05,30,18,12,19.40
2015,05,30,18,13,19.40
2015,05,30,18,14,19.40
2015,05,30,18,15,19.50
2015,05,30,18,16,19.50
2015,05,30,18,17,19.50
2015,05,30,18,18,19.50
2015,05,30,18,19,19.50
2015,05,30,18,20,19.50
2015,05,30,18,21,19.50
2015,05,30,18,22,19.50
2015,05,30,18,23,19.50
2015,05,30,18,24,19.50
2015,05,30,18,25,19.50
2015,05,30,18,26,19.50
2015,05,30,18,27,19.60
2015,05,30,18,28,19.60
2015,05,30,18,29,19.70
2015,05,30,18,30,19.60
2015,05,30,18,31,19.60
2015,05,30,18,32,19.50
2015,05,30,18,33,19.30
2015,05,30,18,34,19.30
2015,05,30,18,35,19.20
2015,05,30,18,36,19.20
2015,05,30,18,37,19.20
2015,05,30,18,38,19.10
2015,05,30,18,39,19.00
2015,05,30,18,40,19.00
2015,05,30,18,41,18.90
2015,05,30,18,42,18.90
2015,05,30,18,43,18.90
2015,05,30,18,44,19.00
2015,05,30,18,45,19.10
2015,05,30,18,46,19.10
2015,05,30,18,47,19.00
2015,05,30,18,48,19.00
2015,05,30,18,49,19.00
2015,05,30,18,50,18.90
2015,05,30,18,51,18.90
2015,05,30,18,52,18.80
2015,05,30,18,53,18.80
2015,05,30,18,54,18.70
2015,05,30,18,55,18.80
2015,05,30,18,56,18.80
2015,05,30,18,57,18.80
2015,05,30,18,58,18.80
2015,05,30,18,59,18.90
2015,05,30,19,00,18.90
2015,05,30,19,01,18.80
2015,05,30,19,02,18.80
2015,05,30,19,03,18.80
2015,05,30,19,04,18.80
2015,05,30,19,05,18.90
2015,05,30,19,06,18.80
2015,05,30,19,07,18.80
2015,05,30,19,08,18.80
2015,05,30,19,09,18.80
2015,05,30,19,10,18.80
2015,05,30,19,11,18.80
2015,05,30,19,12,18.80
2015,05,30,19,13,18.80
2015,05,30,19,14,18.80
2015,05,30,19,15,18.80
2015,05,30,19,16,18.80
2015,05,30,19,17,18.80
2015,05,30,19,18,18.80
2015,05,30,19,19,18.70
2015,05,30,19,20,18.70
2015,05,30,19,21,18.70
2015,05,30,19,22,18.70
2015,05,30,19,23,18.70
2015,05,30,19,24,18.70
2015,05,30,19,25,18.70
2015,05,30,19,26,18.60
2015,05,30,19,27,18.60
2015,05,30,19,28,18.60
2015,05,30,19,29,18.50
2015,05,30,19,30,18.50
2015,05,30,19,31,18.50
2015,05,30,19,32,18.50
2015,05,30,19,33,18.40
2015,05,30,19,34,18.40
2015,05,30,19,35,18.40
2015,05,30,19,36,18.30
2015,05,30,19,37,18.30
2015,05,30,19,38,18.30
2015,05,30,19,39,18.30
2015,05,30,19,40,18.30
2015,05,30,19,41,18.30
2015,05,30,19,42,18.30
2015,05,30,19,43,18.30
2015,05,30,19,44,18.30
2015,05,30,19,45,18.30
2015,05,30,19,46,18.30
2015,05,30,19,47,18.30
2015,05,30,19,48,18.30
2015,05,30,19,49,18.30
